Location: Arthez
(43.0833°N, 0.2500°W)
Time: 23:36:08
(UTC+00:00)

deb Kosmos-970 - Pass Details

Date: 25 August 2022
Orbit: 900 x 1112 km, 65.8° (Epoch: 28 September)

Event Time Altitude Azimuth Distance (km) Brightness Sun altitude
Rises 19:41:43 0° 326° (NW) 3,947 ? -10.1°
Reaches altitude 10° 19:46:00 10° 350° (N) 2,981 ? -10.8°
Maximum altitude 19:49:41 15° 22° (NNE) 2,638 ? -11.4°
Drops below altitude 10° 19:53:20 10° 53° (NE) 2,940 ? -12.0°
Enters shadow 19:56:20 - 72° (ENE) 3,566 ? -12.5°
